Weather History for Decatur, IL

Change the Weather History Date:

Thursday, January 2, 2014

  Actual Average Record
Temperature  
Mean Temperature 13 °F 28 °F  
Max Temperature 20 °F 36 °F - ()
Min Temperature 5 °F 20 °F - ()
Degree Days  
Heating Degree Days 52 37  
Month to date heating degree days 89 74  
Since 1 July heating degree days 2364 2213  
Cooling Degree Days 0 0  
Month to date cooling degree days 0 0  
Year to date cooling degree days 0 0  
Moisture  
Dew Point 10 °F    
Average Humidity 77    
Maximum Humidity 84    
Minimum Humidity 70    
Precipitation  
Precipitation 0.00 in 0.08 in - ()
Sea Level Pressure  
Sea Level Pressure 30.20 in    
Wind  
Wind Speed 15 mph (NNW)    
Max Wind Speed 24 mph    
Max Gust Speed 30 mph    
Visibility 5 miles    
Events Rain , Snow    
T = Trace of Precipitation, MM = Missing Value Source: NWS Daily Summary

Daily Weather History Graph

Daily Weather History Graph

Search for Another Location

Airport:

Trip Planner

Search our weather history database for the weather conditions in past years. The results will help you decide how hot, cold, wet, or windy it might be!

Date:

Astronomy

Jan. 02, 2014 Rise Set
Actual Time 7:16 AM CST 4:42 PM CST
Civil Twilight 6:46 AM CST 5:12 PM CST
Nautical Twilight 6:12 AM CST 5:46 PM CST
Astronomical Twilight 5:40 AM CST 6:19 PM CST
Moon 7:58 AM CST (1/2) 6:38 PM CST (1/2)
Length of Visible Light 10h 25m
Length of Day
9h 25m
Waxing Crescent, 3% of the Moon is Illuminated
Jan 2
Waxing Crescent
Jan 7
First Quarter
Jan 15
Full
Jan 23
Last Quarter
Jan 30
New

Hourly Weather History & Observations

Time (CST) Temp. Windchill Dew Point Humidity Pressure Visibility Wind Dir Wind Speed Gust Speed Precip Events Conditions
12:06 AM 19.4 °F 5.0 °F 15.8 °F 86% 30.06 in 4.0 mi NNE 16.1 mph - 0.00 in Snow Light Snow
12:27 AM 19.4 °F 4.5 °F 15.8 °F 86% 30.04 in 2.0 mi NNE 17.3 mph - 0.00 in Snow Light Snow
12:34 AM 19.4 °F 5.0 °F 15.8 °F 86% 30.04 in 1.8 mi NNE 16.1 mph 23.0 mph 0.00 in Snow Light Snow
12:44 AM 19.4 °F 6.0 °F 15.8 °F 86% 30.04 in 2.5 mi North 13.8 mph 21.9 mph 0.00 in Snow Light Snow
12:54 AM 19.0 °F 4.0 °F 14.0 °F 81% 30.06 in 2.5 mi North 17.3 mph 24.2 mph 0.00 in Snow Light Snow
1:06 AM 19.4 °F 4.1 °F 14.0 °F 80% 30.04 in 3.0 mi North 18.4 mph 25.3 mph 0.00 in Snow Light Snow
1:17 AM 19.4 °F 5.0 °F 14.0 °F 80% 30.04 in 2.0 mi North 16.1 mph 23.0 mph 0.00 in Snow Light Snow
1:35 AM 17.6 °F 3.2 °F 14.0 °F 86% 30.05 in 1.8 mi NNE 15.0 mph 23.0 mph 0.00 in Snow Light Snow
1:43 AM 17.6 °F 2.7 °F 14.0 °F 86% 30.05 in 2.0 mi North 16.1 mph - 0.00 in Snow Light Snow
1:51 AM 17.6 °F 3.2 °F 14.0 °F 86% 30.05 in 1.5 mi North 15.0 mph - 0.00 in Snow Light Snow
1:54 AM 18.0 °F 3.1 °F 14.0 °F 84% 30.09 in 1.5 mi North 16.1 mph - 0.00 in Snow Light Snow
2:54 AM 18.0 °F 3.1 °F 12.9 °F 81% 30.09 in 1.5 mi North 16.1 mph 20.7 mph 0.00 in Snow Light Snow
3:54 AM 18.0 °F 4.2 °F 12.9 °F 81% 30.09 in 2.0 mi North 13.8 mph - 0.00 in Snow Light Snow
4:12 AM 17.6 °F 4.3 °F 14.0 °F 86% 30.06 in 1.8 mi North 12.7 mph - 0.00 in Snow Light Snow
4:45 AM 17.6 °F 2.2 °F 12.2 °F 79% 30.07 in 2.5 mi North 17.3 mph 25.3 mph 0.00 in Snow Light Snow
4:54 AM 17.1 °F 2.0 °F 12.9 °F 84% 30.10 in 2.5 mi North 16.1 mph - 0.00 in Snow Light Snow
5:02 AM 17.6 °F 3.2 °F 12.2 °F 79% 30.08 in 3.0 mi NNW 15.0 mph - 0.00 in Snow Light Snow
5:29 AM 17.6 °F 3.2 °F 12.2 °F 79% 30.09 in 8.0 mi NNW 15.0 mph 28.8 mph 0.00 in Rain Light Freezing Rain
5:46 AM 17.6 °F 0.5 °F 12.2 °F 79% 30.10 in 8.0 mi North 21.9 mph 27.6 mph 0.00 in Rain Light Freezing Rain
5:54 AM 17.1 °F 2.0 °F 12.0 °F 81% 30.13 in 8.0 mi North 16.1 mph 26.5 mph 0.00 in   Overcast
6:02 AM 17.6 °F 3.2 °F 12.2 °F 79% 30.10 in 8.0 mi NNW 15.0 mph 25.3 mph 0.00 in Rain Light Freezing Rain
6:17 AM 15.8 °F 0.3 °F 10.4 °F 79% 30.11 in 7.0 mi NNW 16.1 mph - 0.00 in   Overcast
6:54 AM 15.1 °F -2.0 °F 10.0 °F 80% 30.14 in 7.0 mi NNW 19.6 mph 26.5 mph 0.00 in   Overcast
7:29 AM 15.8 °F -0.2 °F 10.4 °F 79% 30.12 in 8.0 mi NNW 17.3 mph 28.8 mph N/A   Overcast
7:54 AM 15.1 °F -2.0 °F 10.0 °F 80% 30.16 in 5.0 mi NNW 19.6 mph 28.8 mph N/A   Haze
8:09 AM 15.8 °F -1.5 °F 10.4 °F 79% 30.13 in 2.0 mi NW 20.7 mph 25.3 mph N/A   Haze
8:39 AM 15.8 °F 0.3 °F 10.4 °F 79% 30.15 in 1.5 mi NW 16.1 mph 28.8 mph N/A   Haze
8:54 AM 15.1 °F -1.6 °F 10.0 °F 80% 30.19 in 1.5 mi NNW 18.4 mph 26.5 mph N/A   Haze
9:54 AM 16.0 °F -0.9 °F 10.0 °F 77% 30.21 in 1.5 mi NNW 19.6 mph - N/A   Haze
10:12 AM 15.8 °F -1.1 °F 10.4 °F 79% 30.18 in 1.5 mi NNW 19.6 mph - N/A   Haze
10:46 AM 15.8 °F -1.1 °F 10.4 °F 79% 30.19 in 2.5 mi NNW 19.6 mph 27.6 mph N/A   Haze
10:51 AM 15.8 °F -1.1 °F 10.4 °F 79% 30.19 in 3.0 mi NNW 19.6 mph 27.6 mph N/A   Haze
10:54 AM 17.1 °F 2.5 °F 10.9 °F 77% 30.22 in 3.0 mi NNW 15.0 mph 27.6 mph N/A   Haze
11:33 AM 17.6 °F 1.3 °F 10.4 °F 73% 30.18 in 2.5 mi NW 19.6 mph 27.6 mph N/A   Haze
11:50 AM 17.6 °F 1.3 °F 10.4 °F 73% 30.18 in 3.0 mi NW 19.6 mph 26.5 mph N/A   Haze
11:54 AM 17.1 °F 0.1 °F 10.9 °F 77% 30.22 in 2.5 mi NNW 20.7 mph 27.6 mph N/A   Haze
12:03 PM 17.6 °F 2.2 °F 10.4 °F 73% 30.18 in 4.0 mi NW 17.3 mph 27.6 mph N/A   Haze
12:17 PM 17.6 °F 1.3 °F 10.4 °F 73% 30.19 in 4.0 mi NNW 19.6 mph 27.6 mph N/A   Haze
12:37 PM 17.6 °F 1.7 °F 12.2 °F 79% 30.19 in 2.0 mi NW 18.4 mph 26.5 mph N/A   Haze
12:50 PM 17.6 °F 1.3 °F 12.2 °F 79% 30.19 in 2.0 mi NNW 19.6 mph 26.5 mph N/A   Haze
12:54 PM 18.0 °F 1.7 °F 12.0 °F 78% 30.22 in 2.0 mi NNW 19.6 mph 26.5 mph N/A   Haze
1:19 PM 17.6 °F 1.3 °F 12.2 °F 79% 30.19 in 1.8 mi NNW 19.6 mph 25.3 mph N/A   Haze
1:35 PM 17.6 °F 1.7 °F 12.2 °F 79% 30.20 in 2.0 mi NNW 18.4 mph 25.3 mph N/A   Haze
1:54 PM 18.0 °F 2.6 °F 12.0 °F 78% 30.25 in 2.5 mi NNW 17.3 mph 25.3 mph N/A   Haze
2:03 PM 17.6 °F 0.9 °F 10.4 °F 73% 30.22 in 4.0 mi NW 20.7 mph 26.5 mph 0.00 in Snow Light Snow
2:54 PM 17.1 °F 0.6 °F 10.0 °F 74% 30.29 in 7.0 mi NNW 19.6 mph 26.5 mph 0.00 in Rain Light Freezing Rain
3:15 PM 17.6 °F 3.2 °F 10.4 °F 73% 30.26 in 5.0 mi NNW 15.0 mph 25.3 mph 0.00 in   Haze
3:40 PM 15.8 °F -0.2 °F 10.4 °F 79% 30.28 in 10.0 mi NW 17.3 mph 24.2 mph 0.00 in   Overcast
3:54 PM 16.0 °F 3.6 °F 9.0 °F 74% 30.32 in 10.0 mi NNW 10.4 mph 21.9 mph 0.00 in   Overcast
4:33 PM 15.8 °F 0.3 °F 8.6 °F 73% 30.31 in 10.0 mi NNW 16.1 mph 21.9 mph N/A   Overcast
4:54 PM 15.1 °F -1.1 °F 8.1 °F 74% 30.36 in 10.0 mi NW 17.3 mph - N/A   Overcast
5:03 PM 15.8 °F 0.9 °F 8.6 °F 73% 30.32 in 10.0 mi NW 15.0 mph 23.0 mph N/A   Overcast
5:54 PM 12.9 °F -0.2 °F 6.1 °F 74% 30.39 in 10.0 mi NW 10.4 mph - N/A   Partly Cloudy
6:54 PM 12.0 °F -4.0 °F 5.0 °F 73% 30.43 in 10.0 mi NW 15.0 mph - N/A   Clear
7:54 PM 10.0 °F -5.2 °F 3.9 °F 76% 30.43 in 10.0 mi NW 12.7 mph - N/A   Clear
8:54 PM 9.0 °F -7.3 °F 3.0 °F 77% 30.45 in 10.0 mi NNW 13.8 mph - N/A   Clear
9:33 PM 8.6 °F -7.7 °F 3.2 °F 79% 30.41 in 10.0 mi NW 13.8 mph - N/A   Partly Cloudy
9:54 PM 9.0 °F -6.6 °F 3.0 °F 77% 30.45 in 10.0 mi NW 12.7 mph - N/A   Mostly Cloudy
10:54 PM 7.0 °F -5.7 °F 1.0 °F 77% 30.48 in 10.0 mi NW 8.1 mph - N/A   Mostly Cloudy
11:11 PM 6.8 °F -6.9 °F -0.4 °F 72% 30.43 in 10.0 mi NW 9.2 mph - N/A   Scattered Clouds
11:54 PM 6.1 °F -5.6 °F -0.0 °F 76% 30.46 in 10.0 mi NNW 6.9 mph - N/A   Clear